Hourly Data Report for December 05, 2012

BAGOTVILLE A
QUEBEC

48°20'00.000" N
71°00'00.000" W
159.10 m
7060400
71727
YBG

Download Data

Hourly Data (December 2012)
Hourly Data Report for December 5, 2012
TIME
LST
Temp Definition
°C
Dew Point Definition
°C
Rel Hum Definition
%
Precip. Amount Definition
mm

Wind Dir Definition
10's deg

Wind Spd Definition
km/h
Visibility Definition
km
Stn Press Definition
kPa
Hmdx Definition


Wind Chill Definition


Weather Definition


00:00 5.5 4.7 95   18 13 16.1 98.68     Rain
01:00 6.2 5.0 92   16 11 19.3 98.60     Rain
02:00 5.9 4.2 89   19 11 24.1 98.57     Rain
03:00 5.4 3.9 90   21 7 24.1 98.55     Rain
04:00 6.1 4.0 86   25 9 24.1 98.50     Rain
05:00 5.5 4.5 93   30 13 4.8 98.55     Rain, Fog
06:00 4.4 3.8 96   30 20 9.7 98.62     Rain, Fog
07:00 3.2 2.1 92   29 17 9.7 98.67     Rain, Fog
08:00 2.4 0.8 89   30 30 8.0 98.73     Rain Showers, Fog
09:00 -0.7 -3.2 83   29 39 4.0 98.88   -8 Snow Showers
10:00 -1.5 -2.8 91   31 24 1.2 99.04   -8 Snow Showers
11:00 -1.5 -4.5 80   31 24 4.8 99.11   -8 Snow Pellets
12:00 -1.7 -7.3 66   30 33 9.7 99.18   -9 Snow Showers
13:00 -2.4 -7.6 67   30 22 8.0 99.23   -9 Snow Showers
14:00 -1.5 -8.5 59   28 20 8.0 99.25   -7 Snow Showers
15:00 -2.2 -6.3 73   29 22 16.1 99.29   -8 Snow Showers
16:00 -2.3 -5.8 77   30 32 24.1 99.37   -10 Snow Showers
17:00 -2.5 -6.4 75   29 26 24.1 99.44   -9 Snow Showers
18:00 -3.0 -5.4 83   30 35 3.2 99.56   -11 Snow Showers
19:00 -3.5 -8.0 71   30 30 24.1 99.71   -11 Snow Showers
20:00 -4.6 -9.5 69   30 35 24.1 99.84   -13 Snow Showers
21:00 -5.8 -10.8 68   31 30 24.1 99.93   -14 Cloudy
22:00 -6.8 -11.7 68   30 43 24.1 100.03   -17 Cloudy
23:00 -7.8 -13.1 66   30 33 24.1 100.13   -17 Cloudy

Notes on Data Quality.

Legend

  • E = Estimated
  • M = Missing
  • NA = Not Available*
  • [empty] = Indicates an unobserved value
Date modified: